This is the latest recevied weather packets stored in our database for station/object AD4CG. If no packets are shown the sender has not sent any weather packets the latest 10 day(s).
| Time | Temp. | Humidity | Pressure | Rain* | Wind** | Luminosity | Snow |
|---|---|---|---|---|---|---|---|
| 1777703568 | 12.22° C | 100% | 1011.9 hPa | 0 mm | - | - | - |
| 1777696694 | 11.67° C | 100% | 1012.9 hPa | 0 mm | - | - | - |
| 1777696066 | 11.11° C | 100% | 1013.2 hPa | 0 mm | - | - | - |
| 1777695439 | 11.11° C | 100% | 1013.2 hPa | 0 mm | - | - | - |
| 1777694812 | 11.11° C | 100% | 1013.2 hPa | 0 mm | - | - | - |
| 1777693558 | 11.11° C | 100% | 1013.2 hPa | 0 mm | - | - | - |
| 1777691681 | 11.11° C | 100% | 1013.9 hPa | 0 mm | - | - | - |
| 1777691053 | 11.11° C | 100% | 1013.9 hPa | 0 mm | - | - | - |
| 1777689489 | 11.11° C | 100% | 1013.9 hPa | 0 mm | - | - | - |
| 1777688236 | 11.11° C | 100% | 1013.9 hPa | 0 mm | - | - | - |
| 1777687295 | 11.11° C | 100% | 1013.9 hPa | 0 mm | - | - | - |
| 1777686666 | 11.11° C | 100% | 1013.9 hPa | 0 mm | - | - | - |
| 1777686350 | 11.11° C | 100% | 1013.9 hPa | 0 mm | - | - | - |
| 1777684470 | 11.67° C | 100% | 1013.5 hPa | 0 mm | - | - | - |
| 1777683217 | 11.67° C | 100% | 1013.5 hPa | 0 mm | - | - | - |
| 1777680389 | 12.22° C | 100% | 1013.2 hPa | 0 mm | - | - | - |
| 1777676325 | 13.33° C | 100% | 1013.9 hPa | 0 mm | - | - | - |
| 1777671977 | 12.78° C | 100% | 1014.2 hPa | 0 mm | - | - | - |
| 1777671055 | 12.78° C | 100% | 1014.2 hPa | 0 mm | - | - | - |
| 1777669827 | 12.78° C | 100% | 1013.9 hPa | 0 mm | - | - | - |
| 1777668292 | 12.22° C | 100% | 1014.2 hPa | 0 mm | - | - | - |
| 1777667368 | 12.22° C | 100% | 1014.2 hPa | 0 mm | - | - | - |
| 1777667053 | 11.67° C | 100% | 1014.2 hPa | 0 mm | - | - | - |
| 1777665965 | 11.67° C | 100% | 1014.6 hPa | 0 mm | - | - | - |
| 1777663773 | 11.67° C | 100% | 1015.2 hPa | 0 mm | - | - | - |
* Rain latest hour (hover to see other rain measurements)
** Current wind speed in m/s (hover to see current wind gust speed)